Resia Pass, Italy

9:30 AM CEST on October 22, 2017 (GMT +0200)
Resia Pass

Weather History for LIVE - June, 2014

Change the Weather History Date:

Friday, June 6, 2014

  Actual Average Record
Temperature  
Mean Temperature 56 °F -  
Max Temperature 66 °F 60 °F 75 °F (2015)
Min Temperature 46 °F 43 °F 39 °F (2004)
Degree Days  
Heating Degree Days 9    
Growing Degree Days 6 (Base 50)    
Moisture  
Dew Point 47 °F    
Average Humidity 71    
Maximum Humidity 93    
Minimum Humidity 45    
Precipitation  
Precipitation 0.00 in - - ()
Sea Level Pressure  
Sea Level Pressure 30.14 in    
Wind  
Wind Speed 3 mph ()    
Max Wind Speed 9 mph    
Max Gust Speed 21 mph    
Visibility 6.2 miles    
Events      
Averages and records for this station are not official NWS values.
T = Trace of Precipitation, MM = Missing Value Source: Averaged Metar Reports

Daily Weather History Graph

Daily Weather History Graph

Search for Another Location

Airport or City:

Trip Planner

Search our weather history database for the weather conditions in past years. The results will help you decide how hot, cold, wet, or windy it might be!

Date:

Astronomy

Jun. 06, 2014 Rise Set
Actual Time 5:25 AM CEST 9:08 PM CEST
Civil Twilight 4:46 AM CEST 9:47 PM CEST
Nautical Twilight 3:53 AM CEST 10:40 PM CEST
Astronomical Twilight 2:40 AM CEST 11:54 PM CEST
Moon 1:47 PM CEST (6/6) 1:34 AM CEST (6/6)
Length of Visible Light 17h 01m
Length of Day
15h 43m
First Quarter, 55% of the Moon is Illuminated
Jun 6
First Quarter
Jun 13
Full
Jun 19
Last Quarter
Jun 27
New
Jul 5
First Quarter

Hourly Weather History & Observations

Time (CEST) Temp. Dew Point Humidity Pressure Visibility Wind Dir Wind Speed Gust Speed Precip Events Conditions
12:55 AM 50.0 °F 46.4 °F 87% 30.09 in - Calm Calm - N/A   Clear
1:55 AM 50.0 °F 46.4 °F 87% 30.09 in - Calm Calm - N/A   Clear
2:55 AM 50.0 °F 46.4 °F 87% 30.09 in - Calm Calm - N/A   Clear
3:55 AM 50.0 °F 46.4 °F 87% 30.09 in - North 3.5 mph - N/A   Clear
4:55 AM 48.2 °F 46.4 °F 93% 30.09 in - North 3.5 mph - N/A   Clear
5:55 AM 48.2 °F 46.4 °F 93% 30.09 in - Calm Calm - N/A   Clear
6:55 AM 46.4 °F 44.6 °F 93% 30.15 in - Calm Calm - N/A   Clear
7:55 AM 48.2 °F 46.4 °F 93% 30.15 in - North 4.6 mph - N/A   Clear
8:55 AM 50.0 °F 46.4 °F 87% 30.18 in 6.2 mi NNW 2.3 mph - N/A   Partly Cloudy
9:55 AM 55.4 °F 48.2 °F 77% 30.18 in 6.2 mi SSW 3.5 mph - N/A   Partly Cloudy
10:55 AM 60.8 °F 46.4 °F 59% 30.18 in 6.2 mi South 8.1 mph - N/A   Partly Cloudy
11:55 AM 62.6 °F 48.2 °F 59% 30.15 in 6.2 mi SSE 9.2 mph - N/A   Partly Cloudy
12:55 PM 62.6 °F 42.8 °F 48% 30.15 in 6.2 mi South 9.2 mph 20.7 mph N/A   Partly Cloudy
1:55 PM 64.4 °F 42.8 °F 45% 30.15 in - South 8.1 mph - N/A   Clear
2:55 PM 64.4 °F 44.6 °F 49% 30.15 in - South 9.2 mph - N/A   Clear
3:55 PM 66.2 °F 44.6 °F 46% 30.15 in - South 8.1 mph - N/A   Clear
4:55 PM 66.2 °F 46.4 °F 49% 30.15 in - South 9.2 mph - N/A   Clear
5:55 PM 64.4 °F 46.4 °F 52% 30.12 in - South 9.2 mph - N/A   Clear
7:55 PM 62.6 °F 50.0 °F 63% 30.15 in - SSE 4.6 mph - N/A   Clear
8:55 PM 60.8 °F 48.2 °F 63% 30.15 in - SSE 8.1 mph - N/A   Clear
9:55 PM 59.0 °F 48.2 °F 67% 30.18 in - SE 5.8 mph - N/A   Clear
10:55 PM 57.2 °F 50.0 °F 77% 30.21 in - South 4.6 mph - N/A   Clear
11:55 PM 55.4 °F 50.0 °F 82% 30.21 in - Calm Calm - N/A   Clear